Year,Month,Day,Hour,Minute,Value (Times are PST for temperature in C)
2016,05,05,00,00,11.00
2016,05,05,00,01,10.90
2016,05,05,00,02,10.90
2016,05,05,00,03,10.90
2016,05,05,00,04,10.90
2016,05,05,00,05,10.90
2016,05,05,00,06,10.90
2016,05,05,00,07,10.90
2016,05,05,00,08,10.90
2016,05,05,00,09,10.90
2016,05,05,00,10,10.90
2016,05,05,00,11,10.90
2016,05,05,00,12,10.90
2016,05,05,00,13,10.90
2016,05,05,00,14,10.90
2016,05,05,00,15,10.90
2016,05,05,00,16,10.90
2016,05,05,00,17,10.90
2016,05,05,00,18,10.80
2016,05,05,00,19,10.80
2016,05,05,00,20,10.80
2016,05,05,00,21,10.80
2016,05,05,00,22,10.80
2016,05,05,00,23,10.80
2016,05,05,00,24,10.80
2016,05,05,00,25,10.80
2016,05,05,00,26,10.80
2016,05,05,00,27,10.80
2016,05,05,00,28,10.80
2016,05,05,00,29,10.70
2016,05,05,00,30,10.70
2016,05,05,00,31,10.70
2016,05,05,00,32,10.70
2016,05,05,00,33,10.70
2016,05,05,00,34,10.70
2016,05,05,00,35,10.60
2016,05,05,00,36,10.60
2016,05,05,00,37,10.60
2016,05,05,00,38,10.60
2016,05,05,00,39,10.60
2016,05,05,00,40,10.60
2016,05,05,00,41,10.60
2016,05,05,00,42,10.60
2016,05,05,00,43,10.60
2016,05,05,00,44,10.60
2016,05,05,00,45,10.60
2016,05,05,00,46,10.60
2016,05,05,00,47,10.60
2016,05,05,00,48,10.60
2016,05,05,00,49,10.50
2016,05,05,00,50,10.50
2016,05,05,00,51,10.50
2016,05,05,00,52,10.50
2016,05,05,00,53,10.50
2016,05,05,00,54,10.50
2016,05,05,00,55,10.40
2016,05,05,00,56,10.40
2016,05,05,00,57,10.40
2016,05,05,00,58,10.30
2016,05,05,00,59,10.30
2016,05,05,01,00,10.30
2016,05,05,01,01,10.30
2016,05,05,01,02,10.30
2016,05,05,01,03,10.30
2016,05,05,01,04,10.30
2016,05,05,01,05,10.30
2016,05,05,01,06,10.30
2016,05,05,01,07,10.30
2016,05,05,01,08,10.30
2016,05,05,01,09,10.20
2016,05,05,01,10,10.20
2016,05,05,01,11,10.20
2016,05,05,01,12,10.20
2016,05,05,01,13,10.10
2016,05,05,01,14,10.10
2016,05,05,01,15,10.10
2016,05,05,01,16,10.00
2016,05,05,01,17,10.00
2016,05,05,01,18,10.00
2016,05,05,01,19,10.00
2016,05,05,01,20,9.90
2016,05,05,01,21,9.90
2016,05,05,01,22,9.90
2016,05,05,01,23,9.90
2016,05,05,01,24,9.80
2016,05,05,01,25,9.80
2016,05,05,01,26,9.80
2016,05,05,01,27,9.70
2016,05,05,01,28,9.70
2016,05,05,01,29,9.70
2016,05,05,01,30,9.70
2016,05,05,01,31,9.70
2016,05,05,01,32,9.60
2016,05,05,01,33,9.60
2016,05,05,01,34,9.60
2016,05,05,01,35,9.60
2016,05,05,01,36,9.60
2016,05,05,01,37,9.60
2016,05,05,01,38,9.60
2016,05,05,01,39,9.60
2016,05,05,01,40,9.60
2016,05,05,01,41,9.60
2016,05,05,01,42,9.60
2016,05,05,01,43,9.50
2016,05,05,01,44,9.50
2016,05,05,01,45,9.50
2016,05,05,01,46,9.50
2016,05,05,01,47,9.50
2016,05,05,01,48,9.40
2016,05,05,01,49,9.40
2016,05,05,01,50,9.40
2016,05,05,01,51,9.40
2016,05,05,01,52,9.40
2016,05,05,01,53,9.30
2016,05,05,01,54,9.30
2016,05,05,01,55,9.30
2016,05,05,01,56,9.30
2016,05,05,01,57,9.30
2016,05,05,01,58,9.20
2016,05,05,01,59,9.20
2016,05,05,02,00,9.20
2016,05,05,02,01,9.20
2016,05,05,02,02,9.10
2016,05,05,02,03,9.10
2016,05,05,02,04,9.10
2016,05,05,02,05,9.10
2016,05,05,02,06,9.00
2016,05,05,02,07,9.00
2016,05,05,02,08,9.00
2016,05,05,02,09,8.90
2016,05,05,02,10,8.90
2016,05,05,02,11,8.90
2016,05,05,02,12,8.90
2016,05,05,02,13,8.90
2016,05,05,02,14,8.90
2016,05,05,02,15,8.80
2016,05,05,02,16,8.80
2016,05,05,02,17,8.80
2016,05,05,02,18,8.80
2016,05,05,02,19,8.70
2016,05,05,02,20,8.70
2016,05,05,02,21,8.70
2016,05,05,02,22,8.60
2016,05,05,02,23,8.60
2016,05,05,02,24,8.50
2016,05,05,02,25,8.50
2016,05,05,02,26,8.40
2016,05,05,02,27,8.40
2016,05,05,02,28,8.40
2016,05,05,02,29,8.30
2016,05,05,02,30,8.30
2016,05,05,02,31,8.30
2016,05,05,02,32,8.30
2016,05,05,02,33,8.30
2016,05,05,02,34,8.30
2016,05,05,02,35,8.30
2016,05,05,02,36,8.30
2016,05,05,02,37,8.30
2016,05,05,02,38,8.30
2016,05,05,02,39,8.30
2016,05,05,02,40,8.30
2016,05,05,02,41,8.30
2016,05,05,02,42,8.30
2016,05,05,02,43,8.30
2016,05,05,02,44,8.30
2016,05,05,02,45,8.30
2016,05,05,02,46,8.30
2016,05,05,02,47,8.20
2016,05,05,02,48,8.20
2016,05,05,02,49,8.20
2016,05,05,02,50,8.10
2016,05,05,02,51,8.10
2016,05,05,02,52,8.10
2016,05,05,02,53,8.10
2016,05,05,02,54,8.10
2016,05,05,02,55,8.00
2016,05,05,02,56,8.00
2016,05,05,02,57,8.00
2016,05,05,02,58,8.00
2016,05,05,02,59,8.00
2016,05,05,03,00,7.90
2016,05,05,03,01,7.90
2016,05,05,03,02,7.90
2016,05,05,03,03,7.90
2016,05,05,03,04,7.80
2016,05,05,03,05,7.80
2016,05,05,03,06,7.80
2016,05,05,03,07,7.80
2016,05,05,03,08,7.80
2016,05,05,03,09,7.80
2016,05,05,03,10,7.80
2016,05,05,03,11,7.80
2016,05,05,03,12,7.70
2016,05,05,03,13,7.70
2016,05,05,03,14,7.70
2016,05,05,03,15,7.70
2016,05,05,03,16,7.70
2016,05,05,03,17,7.70
2016,05,05,03,18,7.70
2016,05,05,03,19,7.70
2016,05,05,03,20,7.70
2016,05,05,03,21,7.70
2016,05,05,03,22,7.70
2016,05,05,03,23,7.60
2016,05,05,03,24,7.60
2016,05,05,03,25,7.50
2016,05,05,03,26,7.50
2016,05,05,03,27,7.40
2016,05,05,03,28,7.40
2016,05,05,03,29,7.40
2016,05,05,03,30,7.40
2016,05,05,03,31,7.40
2016,05,05,03,32,7.40
2016,05,05,03,33,7.30
2016,05,05,03,34,7.30
2016,05,05,03,35,7.30
2016,05,05,03,36,7.30
2016,05,05,03,37,7.30
2016,05,05,03,38,7.30
2016,05,05,03,39,7.30
2016,05,05,03,40,7.30
2016,05,05,03,41,7.30
2016,05,05,03,42,7.30
2016,05,05,03,43,7.20
2016,05,05,03,44,7.20
2016,05,05,03,45,7.30
2016,05,05,03,46,7.30
2016,05,05,03,47,7.30
2016,05,05,03,48,7.30
2016,05,05,03,49,7.30
2016,05,05,03,50,7.30
2016,05,05,03,51,7.20
2016,05,05,03,52,7.20
2016,05,05,03,53,7.20
2016,05,05,03,54,7.20
2016,05,05,03,55,7.20
2016,05,05,03,56,7.10
2016,05,05,03,57,7.10
2016,05,05,03,58,7.10
2016,05,05,03,59,7.10
2016,05,05,04,00,7.10
2016,05,05,04,01,7.20
2016,05,05,04,02,7.20
2016,05,05,04,03,7.10
2016,05,05,04,04,7.10
2016,05,05,04,05,7.10
2016,05,05,04,06,7.10
2016,05,05,04,07,7.10
2016,05,05,04,08,7.10
2016,05,05,04,09,7.10
2016,05,05,04,10,7.10
2016,05,05,04,11,7.10
2016,05,05,04,12,7.00
2016,05,05,04,13,7.00
2016,05,05,04,14,7.00
2016,05,05,04,15,7.00
2016,05,05,04,16,7.10
2016,05,05,04,17,7.00
2016,05,05,04,18,7.00
2016,05,05,04,19,7.10
2016,05,05,04,20,7.10
2016,05,05,04,21,7.10
2016,05,05,04,22,7.00
2016,05,05,04,23,7.00
2016,05,05,04,24,7.00
2016,05,05,04,25,7.00
2016,05,05,04,26,7.00
2016,05,05,04,27,7.10
2016,05,05,04,28,7.10
2016,05,05,04,29,7.10
2016,05,05,04,30,7.10
2016,05,05,04,31,7.10
2016,05,05,04,32,7.10
2016,05,05,04,33,7.00
2016,05,05,04,34,7.00
2016,05,05,04,35,6.90
2016,05,05,04,36,6.90
2016,05,05,04,37,6.90
2016,05,05,04,38,6.80
2016,05,05,04,39,6.80
2016,05,05,04,40,6.80
2016,05,05,04,41,6.80
2016,05,05,04,42,6.70
2016,05,05,04,43,6.70
2016,05,05,04,44,6.70
2016,05,05,04,45,6.60
2016,05,05,04,46,6.60
2016,05,05,04,47,6.50
2016,05,05,04,48,6.50
2016,05,05,04,49,6.40
2016,05,05,04,50,6.40
2016,05,05,04,51,6.40
2016,05,05,04,52,6.40
2016,05,05,04,53,6.40
2016,05,05,04,54,6.40
2016,05,05,04,55,6.40
2016,05,05,04,56,6.40
2016,05,05,04,57,6.40
2016,05,05,04,58,6.30
2016,05,05,04,59,6.30
2016,05,05,05,00,6.30
2016,05,05,05,01,6.30
2016,05,05,05,02,6.30
2016,05,05,05,03,6.30
2016,05,05,05,04,6.30
2016,05,05,05,05,6.30
2016,05,05,05,06,6.30
2016,05,05,05,07,6.20
2016,05,05,05,08,6.20
2016,05,05,05,09,6.20
2016,05,05,05,10,6.20
2016,05,05,05,11,6.20
2016,05,05,05,12,6.20
2016,05,05,05,13,6.20
2016,05,05,05,14,6.30
2016,05,05,05,15,6.30
2016,05,05,05,16,6.40
2016,05,05,05,17,6.40
2016,05,05,05,18,6.60
2016,05,05,05,19,6.70
2016,05,05,05,20,6.80
2016,05,05,05,21,6.80
2016,05,05,05,22,6.90
2016,05,05,05,23,6.90
2016,05,05,05,24,7.00
2016,05,05,05,25,7.00
2016,05,05,05,26,7.00
2016,05,05,05,27,7.00
2016,05,05,05,28,7.00
2016,05,05,05,29,7.00
2016,05,05,05,30,6.90
2016,05,05,05,31,6.80
2016,05,05,05,32,6.70
2016,05,05,05,33,6.60
2016,05,05,05,34,6.50
2016,05,05,05,35,6.40
2016,05,05,05,36,6.30
2016,05,05,05,37,6.20
2016,05,05,05,38,6.20
2016,05,05,05,39,6.10
2016,05,05,05,40,6.10
2016,05,05,05,41,6.10
2016,05,05,05,42,6.10
2016,05,05,05,43,6.10
2016,05,05,05,44,6.10
2016,05,05,05,45,6.10
2016,05,05,05,46,6.20
2016,05,05,05,47,6.20
2016,05,05,05,48,6.20
2016,05,05,05,49,6.20
2016,05,05,05,50,6.20
2016,05,05,05,51,6.20
2016,05,05,05,52,6.20
2016,05,05,05,53,6.20
2016,05,05,05,54,6.10
2016,05,05,05,55,6.10
2016,05,05,05,56,6.00
2016,05,05,05,57,5.90
2016,05,05,05,58,5.90
2016,05,05,05,59,5.90
2016,05,05,06,00,5.90
2016,05,05,06,01,5.90
2016,05,05,06,02,6.00
2016,05,05,06,03,6.00
2016,05,05,06,04,6.00
2016,05,05,06,05,6.00
2016,05,05,06,06,6.00
2016,05,05,06,07,6.00
2016,05,05,06,08,6.00
2016,05,05,06,09,5.90
2016,05,05,06,10,5.90
2016,05,05,06,11,5.90
2016,05,05,06,12,5.90
2016,05,05,06,13,5.90
2016,05,05,06,14,5.80
2016,05,05,06,15,5.80
2016,05,05,06,16,5.80
2016,05,05,06,17,5.80
2016,05,05,06,18,5.80
2016,05,05,06,19,5.80
2016,05,05,06,20,5.80
2016,05,05,06,21,5.80
2016,05,05,06,22,5.80
2016,05,05,06,23,5.80
2016,05,05,06,24,5.90
2016,05,05,06,25,5.90
2016,05,05,06,26,6.00
2016,05,05,06,27,6.00
2016,05,05,06,28,6.00
2016,05,05,06,29,6.10
2016,05,05,06,30,6.30
2016,05,05,06,31,6.50
2016,05,05,06,32,6.60
2016,05,05,06,33,6.70
2016,05,05,06,34,6.80
2016,05,05,06,35,6.80
2016,05,05,06,36,6.80
2016,05,05,06,37,6.90
2016,05,05,06,38,6.90
2016,05,05,06,39,7.00
2016,05,05,06,40,7.00
2016,05,05,06,41,7.10
2016,05,05,06,42,7.10
2016,05,05,06,43,7.10
2016,05,05,06,44,7.20
2016,05,05,06,45,7.20
2016,05,05,06,46,7.20
2016,05,05,06,47,7.20
2016,05,05,06,48,7.20
2016,05,05,06,49,7.10
2016,05,05,06,50,7.20
2016,05,05,06,51,7.20
2016,05,05,06,52,7.20
2016,05,05,06,53,7.30
2016,05,05,06,54,7.30
2016,05,05,06,55,7.30
2016,05,05,06,56,7.40
2016,05,05,06,57,7.40
2016,05,05,06,58,7.50
2016,05,05,06,59,7.50
2016,05,05,07,00,7.60
2016,05,05,07,01,7.70
2016,05,05,07,02,7.70
2016,05,05,07,03,7.80
2016,05,05,07,04,7.90
2016,05,05,07,05,7.90
2016,05,05,07,06,7.90
2016,05,05,07,07,8.00
2016,05,05,07,08,8.00
2016,05,05,07,09,8.10
2016,05,05,07,10,8.10
2016,05,05,07,11,8.20
2016,05,05,07,12,8.20
2016,05,05,07,13,8.20
2016,05,05,07,14,8.30
2016,05,05,07,15,8.30
2016,05,05,07,16,8.30
2016,05,05,07,17,8.30
2016,05,05,07,18,8.30
2016,05,05,07,19,8.40
2016,05,05,07,20,8.40
2016,05,05,07,21,8.40
2016,05,05,07,22,8.40
2016,05,05,07,23,8.40
2016,05,05,07,24,8.50
2016,05,05,07,25,8.50
2016,05,05,07,26,8.60
2016,05,05,07,27,8.60
2016,05,05,07,28,8.60
2016,05,05,07,29,8.60
2016,05,05,07,30,8.70
2016,05,05,07,31,8.70
2016,05,05,07,32,8.70
2016,05,05,07,33,8.70
2016,05,05,07,34,8.80
2016,05,05,07,35,8.80
2016,05,05,07,36,8.80
2016,05,05,07,37,8.90
2016,05,05,07,38,8.90
2016,05,05,07,39,8.90
2016,05,05,07,40,8.90
2016,05,05,07,41,8.90
2016,05,05,07,42,8.90
2016,05,05,07,43,9.00
2016,05,05,07,44,8.90
2016,05,05,07,45,9.00
2016,05,05,07,46,9.00
2016,05,05,07,47,9.00
2016,05,05,07,48,9.10
2016,05,05,07,49,9.10
2016,05,05,07,50,9.20
2016,05,05,07,51,9.20
2016,05,05,07,52,9.30
2016,05,05,07,53,9.30
2016,05,05,07,54,9.30
2016,05,05,07,55,9.40
2016,05,05,07,56,9.40
2016,05,05,07,57,9.40
2016,05,05,07,58,9.40
2016,05,05,07,59,9.50
2016,05,05,08,00,9.60
2016,05,05,08,01,9.60
2016,05,05,08,02,9.80
2016,05,05,08,03,9.90
2016,05,05,08,04,10.00
2016,05,05,08,05,10.10
2016,05,05,08,06,10.10
2016,05,05,08,07,10.20
2016,05,05,08,08,10.20
2016,05,05,08,09,10.20
2016,05,05,08,10,10.30
2016,05,05,08,11,10.30
2016,05,05,08,12,10.30
2016,05,05,08,13,10.30
2016,05,05,08,14,10.30
2016,05,05,08,15,10.30
2016,05,05,08,16,10.40
2016,05,05,08,17,10.40
2016,05,05,08,18,10.40
2016,05,05,08,19,10.50
2016,05,05,08,20,10.60
2016,05,05,08,21,10.60
2016,05,05,08,22,10.60
2016,05,05,08,23,10.70
2016,05,05,08,24,10.80
2016,05,05,08,25,10.90
2016,05,05,08,26,10.90
2016,05,05,08,27,11.00
2016,05,05,08,28,11.00
2016,05,05,08,29,11.10
2016,05,05,08,30,11.20
2016,05,05,08,31,11.30
2016,05,05,08,32,11.30
2016,05,05,08,33,11.40
2016,05,05,08,34,11.40
2016,05,05,08,35,11.50
2016,05,05,08,36,11.50
2016,05,05,08,37,11.60
2016,05,05,08,38,11.60
2016,05,05,08,39,11.70
2016,05,05,08,40,11.70
2016,05,05,08,41,11.70
2016,05,05,08,42,11.70
2016,05,05,08,43,11.70
2016,05,05,08,44,11.70
2016,05,05,08,45,11.70
2016,05,05,08,46,11.80
2016,05,05,08,47,11.80
2016,05,05,08,48,11.90
2016,05,05,08,49,11.90
2016,05,05,08,50,12.00
2016,05,05,08,51,12.00
2016,05,05,08,52,12.10
2016,05,05,08,53,12.10
2016,05,05,08,54,12.10
2016,05,05,08,55,12.10
2016,05,05,08,56,12.10
2016,05,05,08,57,12.10
2016,05,05,08,58,12.10
2016,05,05,08,59,12.10
2016,05,05,09,00,12.10
2016,05,05,09,01,12.00
2016,05,05,09,02,12.00
2016,05,05,09,03,12.00
2016,05,05,09,04,11.90
2016,05,05,09,05,11.90
2016,05,05,09,06,11.90
2016,05,05,09,07,11.80
2016,05,05,09,08,11.80
2016,05,05,09,09,11.80
2016,05,05,09,10,11.80
2016,05,05,09,11,11.80
2016,05,05,09,12,11.80
2016,05,05,09,13,11.80
2016,05,05,09,14,11.80
2016,05,05,09,15,11.70
2016,05,05,09,16,11.80
2016,05,05,09,17,11.70
2016,05,05,09,18,11.70
2016,05,05,09,19,11.80
2016,05,05,09,20,11.80
2016,05,05,09,21,11.80
2016,05,05,09,22,11.80
2016,05,05,09,23,11.80
2016,05,05,09,24,11.80
2016,05,05,09,25,11.80
2016,05,05,09,26,11.80
2016,05,05,09,27,11.80
2016,05,05,09,28,11.90
2016,05,05,09,29,11.90
2016,05,05,09,30,11.90
2016,05,05,09,31,12.00
2016,05,05,09,32,12.00
2016,05,05,09,33,12.10
2016,05,05,09,34,12.20
2016,05,05,09,35,12.30
2016,05,05,09,36,12.30
2016,05,05,09,37,12.30
2016,05,05,09,38,12.30
2016,05,05,09,39,12.30
2016,05,05,09,40,12.30
2016,05,05,09,41,12.30
2016,05,05,09,42,12.30
2016,05,05,09,43,12.50
2016,05,05,09,44,12.60
2016,05,05,09,45,12.70
2016,05,05,09,46,12.80
2016,05,05,09,47,12.90
2016,05,05,09,48,13.10
2016,05,05,09,49,13.30
2016,05,05,09,50,13.50
2016,05,05,09,51,13.60
2016,05,05,09,52,13.70
2016,05,05,09,53,13.70
2016,05,05,09,54,13.80
2016,05,05,09,55,13.80
2016,05,05,09,56,13.80
2016,05,05,09,57,13.90
2016,05,05,09,58,13.90
2016,05,05,09,59,13.90
2016,05,05,10,00,13.80
2016,05,05,10,01,13.90
2016,05,05,10,02,13.90
2016,05,05,10,03,13.90
2016,05,05,10,04,14.00
2016,05,05,10,05,13.90
2016,05,05,10,06,14.00
2016,05,05,10,07,14.00
2016,05,05,10,08,14.00
2016,05,05,10,09,14.00
2016,05,05,10,10,14.00
2016,05,05,10,11,14.10
2016,05,05,10,12,14.10
2016,05,05,10,13,14.20
2016,05,05,10,14,14.20
2016,05,05,10,15,14.30
2016,05,05,10,16,14.30
2016,05,05,10,17,14.30
2016,05,05,10,18,14.30
2016,05,05,10,19,14.40
2016,05,05,10,20,14.50
2016,05,05,10,21,14.50
2016,05,05,10,22,14.60
2016,05,05,10,23,14.70
2016,05,05,10,24,14.70
2016,05,05,10,25,14.80
2016,05,05,10,26,14.80
2016,05,05,10,27,14.90
2016,05,05,10,28,14.90
2016,05,05,10,29,15.00
2016,05,05,10,30,15.10
2016,05,05,10,31,15.10
2016,05,05,10,32,15.20
2016,05,05,10,33,15.20
2016,05,05,10,34,15.20
2016,05,05,10,35,15.20
2016,05,05,10,36,15.30
2016,05,05,10,37,15.30
2016,05,05,10,38,15.40
2016,05,05,10,39,15.50
2016,05,05,10,40,15.50
2016,05,05,10,41,15.60
2016,05,05,10,42,15.60
2016,05,05,10,43,15.70
2016,05,05,10,44,15.70
2016,05,05,10,45,15.70
2016,05,05,10,46,15.80
2016,05,05,10,47,15.70
2016,05,05,10,48,15.70
2016,05,05,10,49,15.70
2016,05,05,10,50,15.60
2016,05,05,10,51,15.60
2016,05,05,10,52,15.50
2016,05,05,10,53,15.50
2016,05,05,10,54,15.50
2016,05,05,10,55,15.60
2016,05,05,10,56,15.60
2016,05,05,10,57,15.70
2016,05,05,10,58,15.80
2016,05,05,10,59,15.80
2016,05,05,11,00,15.80
2016,05,05,11,01,15.90
2016,05,05,11,02,16.00
2016,05,05,11,03,16.00
2016,05,05,11,04,16.00
2016,05,05,11,05,16.00
2016,05,05,11,06,16.00
2016,05,05,11,07,16.10
2016,05,05,11,08,16.10
2016,05,05,11,09,16.20
2016,05,05,11,10,16.30
2016,05,05,11,11,16.40
2016,05,05,11,12,16.50
2016,05,05,11,13,16.60
2016,05,05,11,14,16.60
2016,05,05,11,15,16.60
2016,05,05,11,16,16.50
2016,05,05,11,17,16.40
2016,05,05,11,18,16.40
2016,05,05,11,19,16.30
2016,05,05,11,20,16.30
2016,05,05,11,21,16.40
2016,05,05,11,22,16.40
2016,05,05,11,23,16.40
2016,05,05,11,24,16.40
2016,05,05,11,25,16.50
2016,05,05,11,26,16.60
2016,05,05,11,27,16.60
2016,05,05,11,28,16.70
2016,05,05,11,29,16.80
2016,05,05,11,30,16.80
2016,05,05,11,31,16.70
2016,05,05,11,32,16.60
2016,05,05,11,33,16.40
2016,05,05,11,34,16.50
2016,05,05,11,35,16.50
2016,05,05,11,36,16.60
2016,05,05,11,37,16.70
2016,05,05,11,38,16.80
2016,05,05,11,39,16.80
2016,05,05,11,40,16.80
2016,05,05,11,41,16.80
2016,05,05,11,42,16.80
2016,05,05,11,43,16.80
2016,05,05,11,44,16.80
2016,05,05,11,45,16.90
2016,05,05,11,46,17.10
2016,05,05,11,47,17.30
2016,05,05,11,48,17.50
2016,05,05,11,49,17.50
2016,05,05,11,50,17.40
2016,05,05,11,51,17.40
2016,05,05,11,52,17.30
2016,05,05,11,53,17.40
2016,05,05,11,54,17.40
2016,05,05,11,55,17.50
2016,05,05,11,56,17.50
2016,05,05,11,57,17.60
2016,05,05,11,58,17.80
2016,05,05,11,59,17.80
2016,05,05,12,00,17.80
2016,05,05,12,01,17.80
2016,05,05,12,02,17.70
2016,05,05,12,03,17.50
2016,05,05,12,04,17.40
2016,05,05,12,05,17.40
2016,05,05,12,06,17.40
2016,05,05,12,07,17.40
2016,05,05,12,08,17.50
2016,05,05,12,09,17.60
2016,05,05,12,10,17.80
2016,05,05,12,11,18.00
2016,05,05,12,12,18.20
2016,05,05,12,13,18.40
2016,05,05,12,14,18.60
2016,05,05,12,15,18.70
2016,05,05,12,16,18.50
2016,05,05,12,17,18.40
2016,05,05,12,18,18.20
2016,05,05,12,19,18.20
2016,05,05,12,20,18.30
2016,05,05,12,21,18.40
2016,05,05,12,22,18.40
2016,05,05,12,23,18.40
2016,05,05,12,24,18.40
2016,05,05,12,25,18.30
2016,05,05,12,26,18.40
2016,05,05,12,27,18.30
2016,05,05,12,28,18.30
2016,05,05,12,29,18.30
2016,05,05,12,30,18.30
2016,05,05,12,31,18.50
2016,05,05,12,32,18.60
2016,05,05,12,33,18.50
2016,05,05,12,34,18.50
2016,05,05,12,35,18.30
2016,05,05,12,36,18.20
2016,05,05,12,37,18.20
2016,05,05,12,38,18.10
2016,05,05,12,39,18.10
2016,05,05,12,40,18.10
2016,05,05,12,41,18.00
2016,05,05,12,42,17.90
2016,05,05,12,43,17.80
2016,05,05,12,44,17.90
2016,05,05,12,45,17.90
2016,05,05,12,46,17.90
2016,05,05,12,47,18.00
2016,05,05,12,48,18.00
2016,05,05,12,49,18.10
2016,05,05,12,50,18.20
2016,05,05,12,51,18.10
2016,05,05,12,52,18.00
2016,05,05,12,53,17.90
2016,05,05,12,54,17.90
2016,05,05,12,55,17.90
2016,05,05,12,56,17.80
2016,05,05,12,57,17.80
2016,05,05,12,58,17.80
2016,05,05,12,59,18.00
2016,05,05,13,00,18.00
2016,05,05,13,01,18.00
2016,05,05,13,02,18.00
2016,05,05,13,03,17.90
2016,05,05,13,04,17.70
2016,05,05,13,05,17.70
2016,05,05,13,06,17.80
2016,05,05,13,07,17.80
2016,05,05,13,08,17.90
2016,05,05,13,09,18.10
2016,05,05,13,10,18.10
2016,05,05,13,11,18.10
2016,05,05,13,12,18.10
2016,05,05,13,13,18.10
2016,05,05,13,14,18.10
2016,05,05,13,15,18.10
2016,05,05,13,16,18.00
2016,05,05,13,17,17.80
2016,05,05,13,18,17.70
2016,05,05,13,19,17.60
2016,05,05,13,20,17.60
2016,05,05,13,21,17.80
2016,05,05,13,22,17.90
2016,05,05,13,23,18.00
2016,05,05,13,24,18.10
2016,05,05,13,25,18.00
2016,05,05,13,26,18.10
2016,05,05,13,27,18.10
2016,05,05,13,28,18.10
2016,05,05,13,29,18.10
2016,05,05,13,30,18.10
2016,05,05,13,31,18.00
2016,05,05,13,32,17.80
2016,05,05,13,33,17.60
2016,05,05,13,34,17.50
2016,05,05,13,35,17.50
2016,05,05,13,36,17.60
2016,05,05,13,37,17.80
2016,05,05,13,38,18.10
2016,05,05,13,39,18.20
2016,05,05,13,40,18.30
2016,05,05,13,41,18.20
2016,05,05,13,42,18.00
2016,05,05,13,43,17.80
2016,05,05,13,44,17.70
2016,05,05,13,45,17.60
2016,05,05,13,46,17.70
2016,05,05,13,47,17.70
2016,05,05,13,48,17.60
2016,05,05,13,49,17.40
2016,05,05,13,50,17.30
2016,05,05,13,51,17.20
2016,05,05,13,52,17.30
2016,05,05,13,53,17.50
2016,05,05,13,54,17.60
2016,05,05,13,55,17.70
2016,05,05,13,56,17.80
2016,05,05,13,57,17.90
2016,05,05,13,58,18.00
2016,05,05,13,59,17.90
2016,05,05,14,00,17.80
2016,05,05,14,01,17.70
2016,05,05,14,02,17.70
2016,05,05,14,03,17.80
2016,05,05,14,04,17.80
2016,05,05,14,05,17.80
2016,05,05,14,06,17.90
2016,05,05,14,07,18.00
2016,05,05,14,08,17.90
2016,05,05,14,09,17.80
2016,05,05,14,10,17.70
2016,05,05,14,11,17.50
2016,05,05,14,12,17.40
2016,05,05,14,13,17.30
2016,05,05,14,14,17.30
2016,05,05,14,15,17.30
2016,05,05,14,16,17.40
2016,05,05,14,17,17.50
2016,05,05,14,18,17.70
2016,05,05,14,19,17.90
2016,05,05,14,20,18.10
2016,05,05,14,21,18.30
2016,05,05,14,22,18.30
2016,05,05,14,23,18.30
2016,05,05,14,24,18.10
2016,05,05,14,25,18.10
2016,05,05,14,26,18.20
2016,05,05,14,27,18.30
2016,05,05,14,28,18.30
2016,05,05,14,29,18.40
2016,05,05,14,30,18.50
2016,05,05,14,31,18.60
2016,05,05,14,32,18.70
2016,05,05,14,33,18.70
2016,05,05,14,34,18.80
2016,05,05,14,35,18.80
2016,05,05,14,36,18.90
2016,05,05,14,37,18.90
2016,05,05,14,38,18.80
2016,05,05,14,39,18.70
2016,05,05,14,40,18.60
2016,05,05,14,41,18.60
2016,05,05,14,42,18.50
2016,05,05,14,43,18.60
2016,05,05,14,44,18.70
2016,05,05,14,45,18.70
2016,05,05,14,46,18.60
2016,05,05,14,47,18.50
2016,05,05,14,48,18.40
2016,05,05,14,49,18.50
2016,05,05,14,50,18.70
2016,05,05,14,51,18.70
2016,05,05,14,52,18.70
2016,05,05,14,53,18.70
2016,05,05,14,54,18.70
2016,05,05,14,55,18.70
2016,05,05,14,56,18.90
2016,05,05,14,57,19.00
2016,05,05,14,58,19.10
2016,05,05,14,59,19.20
2016,05,05,15,00,19.20
2016,05,05,15,01,19.20
2016,05,05,15,02,19.20
2016,05,05,15,03,19.30
2016,05,05,15,04,19.20
2016,05,05,15,05,19.20
2016,05,05,15,06,19.10
2016,05,05,15,07,19.10
2016,05,05,15,08,19.10
2016,05,05,15,09,19.20
2016,05,05,15,10,19.30
2016,05,05,15,11,19.30
2016,05,05,15,12,19.30
2016,05,05,15,13,19.40
2016,05,05,15,14,19.30
2016,05,05,15,15,19.30
2016,05,05,15,16,19.40
2016,05,05,15,17,19.50
2016,05,05,15,18,19.70
2016,05,05,15,19,19.80
2016,05,05,15,20,20.00
2016,05,05,15,21,20.10
2016,05,05,15,22,20.30
2016,05,05,15,23,20.40
2016,05,05,15,24,20.40
2016,05,05,15,25,20.40
2016,05,05,15,26,20.50
2016,05,05,15,27,20.60
2016,05,05,15,28,20.50
2016,05,05,15,29,20.40
2016,05,05,15,30,20.40
2016,05,05,15,31,20.30
2016,05,05,15,32,20.20
2016,05,05,15,33,20.20
2016,05,05,15,34,20.20
2016,05,05,15,35,20.20
2016,05,05,15,36,20.20
2016,05,05,15,37,20.30
2016,05,05,15,38,20.40
2016,05,05,15,39,20.50
2016,05,05,15,40,20.50
2016,05,05,15,41,20.60
2016,05,05,15,42,20.70
2016,05,05,15,43,20.80
2016,05,05,15,44,20.70
2016,05,05,15,45,20.70
2016,05,05,15,46,20.70
2016,05,05,15,47,20.80
2016,05,05,15,48,20.90
2016,05,05,15,49,20.90
2016,05,05,15,50,20.80
2016,05,05,15,51,20.70
2016,05,05,15,52,20.60
2016,05,05,15,53,20.50
2016,05,05,15,54,20.40
2016,05,05,15,55,20.30
2016,05,05,15,56,20.30
2016,05,05,15,57,20.30
2016,05,05,15,58,20.20
2016,05,05,15,59,20.10
2016,05,05,16,00,20.30
2016,05,05,16,01,20.40
2016,05,05,16,02,20.60
2016,05,05,16,03,20.70
2016,05,05,16,04,20.70
2016,05,05,16,05,20.70
2016,05,05,16,06,20.60
2016,05,05,16,07,20.50
2016,05,05,16,08,20.40
2016,05,05,16,09,20.50
2016,05,05,16,10,20.60
2016,05,05,16,11,20.70
2016,05,05,16,12,20.70
2016,05,05,16,13,20.70
2016,05,05,16,14,20.60
2016,05,05,16,15,20.60
2016,05,05,16,16,20.60
2016,05,05,16,17,20.50
2016,05,05,16,18,20.50
2016,05,05,16,19,20.50
2016,05,05,16,20,20.50
2016,05,05,16,21,20.60
2016,05,05,16,22,20.70
2016,05,05,16,23,20.70
2016,05,05,16,24,20.80
2016,05,05,16,25,20.80
2016,05,05,16,26,20.80
2016,05,05,16,27,20.80
2016,05,05,16,28,20.80
2016,05,05,16,29,20.80
2016,05,05,16,30,20.80
2016,05,05,16,31,20.80
2016,05,05,16,32,20.80
2016,05,05,16,33,20.80
2016,05,05,16,34,20.80
2016,05,05,16,35,20.70
2016,05,05,16,36,20.70
2016,05,05,16,37,20.70
2016,05,05,16,38,20.70
2016,05,05,16,39,20.70
2016,05,05,16,40,20.70
2016,05,05,16,41,20.80
2016,05,05,16,42,20.90
2016,05,05,16,43,21.00
2016,05,05,16,44,21.00
2016,05,05,16,45,21.10
2016,05,05,16,46,21.10
2016,05,05,16,47,21.10
2016,05,05,16,48,21.20
2016,05,05,16,49,21.20
2016,05,05,16,50,21.30
2016,05,05,16,51,21.30
2016,05,05,16,52,21.20
2016,05,05,16,53,21.10
2016,05,05,16,54,21.00
2016,05,05,16,55,20.80
2016,05,05,16,56,20.80
2016,05,05,16,57,20.70
2016,05,05,16,58,20.80
2016,05,05,16,59,20.80
2016,05,05,17,00,20.80
2016,05,05,17,01,20.70
2016,05,05,17,02,20.60
2016,05,05,17,03,20.60
2016,05,05,17,04,20.60
2016,05,05,17,05,20.60
2016,05,05,17,06,20.50
2016,05,05,17,07,20.50
2016,05,05,17,08,20.50
2016,05,05,17,09,20.50
2016,05,05,17,10,20.60
2016,05,05,17,11,20.60
2016,05,05,17,12,20.60
2016,05,05,17,13,20.60
2016,05,05,17,14,20.60
2016,05,05,17,15,20.60
2016,05,05,17,16,20.50
2016,05,05,17,17,20.50
2016,05,05,17,18,20.60
2016,05,05,17,19,20.70
2016,05,05,17,20,20.70
2016,05,05,17,21,20.70
2016,05,05,17,22,20.70
2016,05,05,17,23,20.70
2016,05,05,17,24,20.70
2016,05,05,17,25,20.60
2016,05,05,17,26,20.50
2016,05,05,17,27,20.30
2016,05,05,17,28,20.20
2016,05,05,17,29,20.10
2016,05,05,17,30,20.00
2016,05,05,17,31,19.90
2016,05,05,17,32,19.90
2016,05,05,17,33,19.90
2016,05,05,17,34,19.90
2016,05,05,17,35,20.00
2016,05,05,17,36,20.00
2016,05,05,17,37,20.00